When you browse on this site, cookies collect data to enhance your experience and personalize the content and advertising you see.
Visit our Privacy Policy to learn more. By continuing to use the site, you agree to this use of cookies and data.
  • In France
  • List of Countries
  • For 7 days
  • Water Temperature
  • Satellite Maps
  • Weather Map
  • Weather Widgets
  • user-avatar
    Login

    Hourly Weather Buenos Aires

    Today, 19 January, Saturday

    Time Temperature Precipitation Wind Pressure Humidity
    00:00 +21°C° 0 mm 5 mps 765 mmHg 65%
    01:00 +21°C° 0 mm 4 mps 765 mmHg 65%
    02:00 +21°C° 0 mm 4 mps 765 mmHg 64%
    03:00 +21°C° 0 mm 3 mps 765 mmHg 64%
    04:00 +20°C° 0 mm 3 mps 766 mmHg 65%
    05:00 +20°C° 0 mm 2 mps 766 mmHg 65%
    06:00 +21°C° 0 mm 2 mps 766 mmHg 60%
    07:00 +23°C° 0 mm 2 mps 766 mmHg 56%
    08:00 +24°C° 0 mm 2 mps 766 mmHg 51%
    09:00 +26°C° 0 mm 2 mps 766 mmHg 46%
    10:00 +27°C° 0 mm 3 mps 766 mmHg 41%
    11:00 +28°C° 0 mm 3 mps 765 mmHg 35%
    12:00 +28°C° 0 mm 4 mps 765 mmHg 35%
    13:00 +28°C° 0 mm 4 mps 765 mmHg 36%
    14:00 +29°C° 0 mm 5 mps 764 mmHg 36%
    15:00 +28°C° 0 mm 5 mps 764 mmHg 37%
    16:00 +28°C° 0 mm 5 mps 763 mmHg 38%
    17:00 +27°C° 0 mm 5 mps 763 mmHg 39%
    18:00 +26°C° 0 mm 5 mps 763 mmHg 46%
    19:00 +25°C° 0 mm 5 mps 763 mmHg 53%
    20:00 +25°C° 0 mm 5 mps 764 mmHg 59%
    21:00 +23°C° 0 mm 6 mps 764 mmHg 61%
    22:00 +23°C° 0 mm 6 mps 764 mmHg 62%
    23:00 +23°C° 0 mm 6 mps 764 mmHg 63%

    Tomorrow, 20 January, Sunday

    Time Temperature Precipitation Wind Pressure Humidity
    00:00 +23°C° 0 mm 6 mps 764 mmHg 63%
    01:00 +22°C° 0 mm 5 mps 764 mmHg 63%
    02:00 +22°C° 0 mm 5 mps 764 mmHg 64%
    03:00 +21°C° 0 mm 5 mps 764 mmHg 64%
    04:00 +21°C° 0 mm 5 mps 764 mmHg 65%
    05:00 +20°C° 0 mm 4 mps 764 mmHg 66%
    06:00 +21°C° 0 mm 4 mps 764 mmHg 63%
    07:00 +22°C° 0 mm 4 mps 764 mmHg 61%
    08:00 +22°C° 0 mm 4 mps 764 mmHg 58%
    09:00 +25°C° 0 mm 4 mps 763 mmHg 52%
    10:00 +26°C° 0 mm 4 mps 763 mmHg 47%
    11:00 +27°C° 0 mm 3 mps 763 mmHg 41%
    12:00 +28°C° 0 mm 3 mps 762 mmHg 39%
    13:00 +29°C° 0 mm 3 mps 761 mmHg 36%
    14:00 +29°C° 0 mm 3 mps 760 mmHg 34%
    15:00 +29°C° 0 mm 3 mps 760 mmHg 34%
    16:00 +29°C° 0 mm 3 mps 759 mmHg 34%
    17:00 +30°C° 0 mm 3 mps 759 mmHg 34%
    18:00 +29°C° 0 mm 3 mps 759 mmHg 38%
    19:00 +28°C° 0 mm 3 mps 759 mmHg 41%
    20:00 +27°C° 0 mm 3 mps 759 mmHg 45%
    21:00 +27°C° 0 mm 4 mps 759 mmHg 48%
    22:00 +26°C° 0 mm 4 mps 759 mmHg 51%
    23:00 +26°C° 0 mm 4 mps 759 mmHg 54%

    Day after tomorrow, 21 January, Monday

    Time Temperature Precipitation Wind Pressure Humidity
    00:00 +25°C° 0 mm 4 mps 759 mmHg 57%
    01:00 +25°C° 0 mm 5 mps 759 mmHg 60%
    02:00 +23°C° 0 mm 5 mps 759 mmHg 62%
    03:00 +23°C° 0 mm 4 mps 759 mmHg 66%
    04:00 +23°C° 0 mm 4 mps 759 mmHg 71%
    05:00 +22°C° 0 mm 4 mps 759 mmHg 75%
    06:00 +23°C° 0 mm 4 mps 759 mmHg 72%
    07:00 +25°C° 0 mm 4 mps 759 mmHg 68%
    08:00 +26°C° 0 mm 3 mps 760 mmHg 65%
    09:00 +28°C° 0 mm 3 mps 759 mmHg 57%
    10:00 +29°C° 0 mm 2 mps 759 mmHg 49%
    11:00 +31°C° 0 mm 2 mps 759 mmHg 41%
    12:00 +32°C° 0 mm 2 mps 758 mmHg 38%
    13:00 +34°C° 0 mm 2 mps 758 mmHg 35%
    14:00 +35°C° 0 mm 3 mps 757 mmHg 32%
    15:00 +35°C° 0 mm 3 mps 757 mmHg 33%
    16:00 +35°C° 0 mm 3 mps 756 mmHg 33%
    17:00 +35°C° 0 mm 3 mps 756 mmHg 34%
    18:00 +34°C° 0 mm 3 mps 756 mmHg 38%
    19:00 +33°C° 0 mm 3 mps 757 mmHg 42%
    20:00 +30°C° 0 mm 4 mps 757 mmHg 46%
    21:00 +30°C° 0 mm 3 mps 757 mmHg 48%
    22:00 +29°C° 0 mm 3 mps 757 mmHg 50%
    23:00 +29°C° 0 mm 3 mps 757 mmHg 52%

    22 January, Tuesday

    Time Temperature Precipitation Wind Pressure Humidity
    00:00 +28°C° 0 mm 4 mps 757 mmHg 54%
    01:00 +28°C° 0 mm 4 mps 757 mmHg 56%
    02:00 +27°C° 0 mm 4 mps 757 mmHg 57%
    03:00 +27°C° 0 mm 4 mps 757 mmHg 60%
    04:00 +26°C° 0 mm 4 mps 757 mmHg 62%
    05:00 +26°C° 0 mm 4 mps 757 mmHg 64%
    06:00 +27°C° 0 mm 4 mps 757 mmHg 61%
    07:00 +28°C° 0 mm 4 mps 757 mmHg 59%
    08:00 +29°C° 0 mm 4 mps 757 mmHg 56%
    09:00 +30°C° 0 mm 4 mps 757 mmHg 51%
    10:00 +33°C° 0 mm 4 mps 756 mmHg 46%
    11:00 +34°C° 0 mm 4 mps 756 mmHg 41%
    12:00 +35°C° 0 mm 4 mps 755 mmHg 39%
    13:00 +36°C° 0 mm 4 mps 755 mmHg 37%
    14:00 +37°C° 0 mm 4 mps 754 mmHg 34%
    15:00 +37°C° 0 mm 4 mps 754 mmHg 35%
    16:00 +37°C° 0 mm 4 mps 754 mmHg 35%
    17:00 +37°C° 0 mm 4 mps 753 mmHg 35%
    18:00 +36°C° 0 mm 4 mps 754 mmHg 39%
    19:00 +35°C° 0 mm 4 mps 754 mmHg 43%
    20:00 +34°C° 0 mm 4 mps 754 mmHg 47%
    21:00 +33°C° 0 mm 4 mps 755 mmHg 51%
    22:00 +31°C° 0 mm 3 mps 755 mmHg 54%
    23:00 +31°C° 0 mm 3 mps 756 mmHg 58%

    23 January, Wednesday

    Time Temperature Precipitation Wind Pressure Humidity
    00:00 +30°C° 0 mm 2 mps 756 mmHg 59%
    01:00 +30°C° 0 mm 2 mps 756 mmHg 60%
    02:00 +29°C° 0 mm 1 mps 756 mmHg 61%
    03:00 +28°C° 0.1 mm 2 mps 757 mmHg 62%
    04:00 +27°C° 0.1 mm 2 mps 757 mmHg 63%
    05:00 +27°C° 0.1 mm 3 mps 757 mmHg 64%
    06:00 +27°C° 0 mm 3 mps 757 mmHg 63%
    07:00 +28°C° 0 mm 4 mps 758 mmHg 63%
    08:00 +28°C° 0 mm 4 mps 758 mmHg 63%
    09:00 +30°C° 0.1 mm 5 mps 758 mmHg 59%
    10:00 +32°C° 0.1 mm 5 mps 758 mmHg 56%
    11:00 +33°C° 0.1 mm 5 mps 758 mmHg 53%
    12:00 +33°C° 0.5 mm 5 mps 758 mmHg 52%
    13:00 +34°C° 0.5 mm 5 mps 758 mmHg 51%
    14:00 +34°C° 0.5 mm 5 mps 757 mmHg 50%
    15:00 +34°C° 0.5 mm 5 mps 757 mmHg 51%
    16:00 +33°C° 0.5 mm 5 mps 757 mmHg 52%
    17:00 +33°C° 0.5 mm 5 mps 757 mmHg 54%
    18:00 +30°C° 0.3 mm 6 mps 757 mmHg 57%
    19:00 +29°C° 0.3 mm 6 mps 757 mmHg 60%
    20:00 +27°C° 0.3 mm 6 mps 757 mmHg 62%
    21:00 +27°C° 0.3 mm 6 mps 758 mmHg 63%
    22:00 +27°C° 0.3 mm 6 mps 758 mmHg 64%
    23:00 +27°C° 0.3 mm 6 mps 758 mmHg 65%

    24 January, Thursday

    Time Temperature Precipitation Wind Pressure Humidity
    00:00 +26°C° 0 mm 6 mps 758 mmHg 66%
    01:00 +26°C° 0 mm 5 mps 758 mmHg 68%
    02:00 +26°C° 0 mm 5 mps 758 mmHg 70%
    03:00 +26°C° 0 mm 5 mps 758 mmHg 72%
    04:00 +26°C° 0 mm 5 mps 758 mmHg 74%
    05:00 +26°C° 0 mm 5 mps 758 mmHg 76%
    06:00 +27°C° 0 mm 5 mps 758 mmHg 73%
    07:00 +28°C° 0 mm 5 mps 758 mmHg 71%
    08:00 +29°C° 0 mm 5 mps 758 mmHg 68%
    09:00 +32°C° 0 mm 5 mps 758 mmHg 61%
    10:00 +33°C° 0 mm 5 mps 758 mmHg 55%
    11:00 +35°C° 0 mm 5 mps 757 mmHg 48%
    12:00 +36°C° 0 mm 5 mps 756 mmHg 46%
    13:00 +37°C° 0 mm 5 mps 756 mmHg 43%
    14:00 +39°C° 0 mm 5 mps 755 mmHg 41%
    15:00 +39°C° 0 mm 5 mps 754 mmHg 43%
    16:00 +39°C° 0 mm 5 mps 754 mmHg 44%
    17:00 +39°C° 0 mm 6 mps 754 mmHg 46%
    18:00 +38°C° 0 mm 6 mps 753 mmHg 50%
    19:00 +36°C° 0 mm 7 mps 752 mmHg 54%
    20:00 +35°C° 0 mm 7 mps 752 mmHg 58%
    21:00 +34°C° 0 mm 7 mps 752 mmHg 60%
    22:00 +34°C° 0 mm 7 mps 752 mmHg 62%
    23:00 +33°C° 0 mm 8 mps 753 mmHg 64%
    Show more